Simultaneous Nadir Overpasses (SNOs) Predictions

Prediction of SNOs between GOES-16 and NOAA-19 Satellite Orbit:

Table of predicted SNOs for the next 14.0 days since TLE Epoch: 6/13/2025
Index Date Time (GOES-16) GOES-16 Lat,Lon NOAA-19 Lat,Lon Distance(km) Time Diff (sec)
1 06/14/2025 16:35:20 0.03,-104.74 -0.72,-101.42 379.35 80
2 06/16/2025 05:06:37 -0.02,-104.71 -0.96,-108.94 482.28 80
3 06/17/2025 04:53:58 -0.02,-104.70 -0.26,-105.87 133.06 80
4 06/18/2025 04:38:39 -0.02,-104.69 0.38,-102.79 216.33 80
5 06/20/2025 16:57:12 0.02,-104.69 0.62,-107.22 289.00 80
6 06/21/2025 16:47:14 0.02,-104.68 -0.13,-104.16 60.16 80
7 06/22/2025 16:34:36 0.02,-104.67 -0.82,-101.09 409.04 80
8 06/24/2025 05:05:50 -0.01,-104.64 -0.90,-108.60 451.86 80
9 06/25/2025 04:53:12 -0.00,-104.63 -0.18,-105.53 103.05 80
10 06/26/2025 04:37:52 0.00,-104.61 0.47,-102.45 245.96 80
